CAPE
879 1050 1414 1642 1626 1597 1449 1429 1575 1747 2027 2049 1938 1883 1905 1915 1888 1844 1768 1608 1599 1661 1761 1737 1744 1719 1578 1173 1178 1104 1057 877 805 857 907 776 701 570 580 540 610 389 781
975 1160 1392 1674 1687 1638 1580 1537 1614 1852 2113 2208 2077 2001 1958 1962 1926 1878 1850 1793 1783 1925 1882 1921 1766 1586 1255 1081 1026 1074 975 812 701 662 745 647 523 532 408 406 556 499 734
1028 1144 1387 1611 1725 1679 1704 1697 1781 2009 2151 2251 2214 2139 2100 2091 1992 1943 1945 1839 1782 1837 1618 1855 1618 1493 1223 1163 1092 1032 896 785 681 625 355 91 122 380 290 381 630 607 385
1015 1197 1352 1537 1737 1799 1743 1770 1924 2013 2150 2213 2251 2254 2236 2174 2045 2022 1950 1769 1686 1829 1728 1378 1354 1349 1281 1138 1009 925 723 492 277 84 5 10 34 199 151 135 196 174 168
1256 1207 1317 1489 1652 1834 1807 1850 1983 1983 2014 2029 2092 2250 2283 2234 2108 1998 1878 1666 1509 1641 1828 1448 1302 1363 1198 945 767 644 444 170 25 0 0 8 27 153 216 126 109 118 54
1229 1362 1375 1451 1569 1837 1903 1952 1967 2028 1910 1886 2003 2122 2214 2051 2168 1857 1608 1507 1579 1661 1673 1526 1429 1249 892 661 542 401 167 24 0 0 0 3 7 22 39 37 42 32 39
1037 1314 1497 1432 1465 1815 2026 2054 2048 1981 1866 1884 1945 1855 1676 872 786 1191 1310 1264 1106 1178 1499 1383 1245 955 672 458 343 126 29 5 0 0 0 0 0 14 19 32 30 28 34
1024 987 1101 1634 1531 1722 1895 1907 1899 1719 1643 1804 1731 1683 1309 720 608 869 1093 764 801 839 957 1195 933 729 450 288 90 32 14 0 0 0 0 0 15 20 8 19 21 32 22
1321 1257 1216 1201 1638 1775 1833 1775 1725 1580 1556 1438 1189 1261 965 722 610 724 617 489 446 678 843 974 713 493 291 182 95 17 5 0 0 0 0 0 32 21 13 20 20 8 9
1577 1532 1518 1302 1166 1506 1775 1889 1717 1533 1204 999 889 766 425 194 245 121 88 237 445 547 654 827 486 283 196 143 51 7 0 0 0 0 0 5 48 25 17 11 27 17 14
1496 1528 1419 1283 1068 908 1160 1511 1442 1320 1318 987 599 540 422 155 99 78 54 145 530 331 355 586 236 174 109 35 16 0 0 0 0 0 0 42 39 21 22 15 9 17 24
1321 1326 1181 897 718 647 688 892 1045 951 1175 595 671 598 467 159 121 135 84 232 258 266 284 214 112 36 0 0 0 0 0 0 0 0 0 38 39 24 29 29 22 33 34
1073 1095 951 709 510 409 486 572 821 992 682 603 512 712 304 192 130 136 104 130 133 151 161 108 73 5 0 0 0 0 0 0 0 0 13 35 66 35 36 28 28 35 33
707 738 663 764 493 336 237 433 729 798 531 592 433 334 204 67 13 41 52 53 110 135 95 65 52 34 0 0 0 0 0 0 0 0 11 26 45 42 39 25 33 37 32
267 155 384 726 485 269 150 104 120 526 334 209 75 0 0 0 9 12 40 67 95 96 62 66 81 26 1 0 0 0 0 0 0 0 1 18 40 47 17 35 37 39 26
6 0 100 294 407 297 104 36 97 171 153 37 2 0 0 1 1 33 13 64 65 43 70 52 71 56 24 7 0 0 0 0 0 0 0 8 26 43 40 36 36 33 26
86 40 130 105 310 285 109 0 14 46 15 18 67 6 2 6 30 21 25 40 36 20 69 58 85 76 5 0 0 0 0 0 0 0 0 8 13 15 28 44 29 26 21
255 95 241 128 84 168 55 12 0 5 19 57 78 67 7 5 3 20 14 30 15 39 64 61 62 32 0 0 0 0 0 0 0 0 0 0 5 8 16 32 33 30 15
306 143 323 164 6 101 72 0 13 53 73 188 234 55 15 38 0 27 38 14 23 60 48 62 63 19 0 0 0 0 0 0 0 0 0 0 0 3 5 13 18 20 19
197 195 347 194 34 32 34 0 19 29 11 87 106 129 68 37 11 12 6 15 25 61 35 26 9 0 0 0 0 0 4 3 0 0 0 0 0 0 0 0 2 1 3
109 173 363 256 45 3 0 0 0 3 2 15 92 167 58 34 59 28 16 16 20 1 30 20 0 0 5 0 0 7 17 17 1 0 0 0 0 0 0 0 0 0 0
87 127 313 294 72 23 0 0 5 3 0 3 20 29 35 123 34 33 25 30 31 4 70 17 2 0 8 6 11 18 12 13 3 1 0 0 0 0 0 0 0 0 0
68 82 292 300 97 43 4 0 0 2 1 1 0 0 1 1 63 49 27 32 45 23 60 22 2 4 6 12 20 17 4 8 1 0 0 0 0 0 0 0 0 0 0
105 114 276 284 132 60 17 0 0 0 0 0 0 0 0 0 0 5 13 27 77 47 48 21 10 3 2 0 3 51 32 1 20 7 7 0 0 0 0 0 0 0 0
156 160 281 256 157 80 37 0 0 0 0 0 0 0 0 0 0 9 13 30 16 38 29 29 16 8 0 1 0 59 70 51 52 38 19 17 55 26 28 44 41 34 31
131 177 248 210 169 90 64 16 0 0 0 0 0 0 0 0 0 14 10 5 25 5 45 25 18 10 6 0 0 82 99 84 19 0 34 55 81 39 38 35 35 56 84
CIN
-270 -250 -158 -102 -89 -84 -99 -98 -80 -61 -48 -47 -46 -41 -35 -19 -8 0 0 0 0 0 0 0 0 0 0 0 0 0 0 0 -3 0 0 0 0 0 0 0 0 0 0
-267 -262 -180 -113 -93 -88 -79 -82 -73 -44 -32 -35 -42 -36 -25 -10 -2 0 0 0 0 0 0 0 0 0 0 0 0 0 0 -1 -1 -1 0 0 0 0 0 0 0 0 0
-324 -274 -185 -118 -72 -59 -61 -69 -59 -28 -12 -15 -21 -21 -17 -9 -4 0 0 0 0 0 0 0 0 0 0 0 0 0 0 0 0 0 -5 -42 -24 0 -2 -1 0 0 -1
-324 -248 -198 -145 -99 -54 -42 -43 -26 -13 -5 -5 -4 -4 -1 -1 -2 0 0 -2 -1 0 0 0 0 0 0 0 0 0 0 -1 -21 -94 -84 -177 -154 -29 -74 -68 -50 -53 -48
-267 -241 -194 -138 -103 -65 -53 -47 -27 -13 -4 -8 -6 0 0 0 0 0 0 -2 -1 0 0 0 0 0 0 0 0 0 -5 -29 -96 0 0 -218 -177 -66 -55 -107 -110 -96 -148
-261 -208 -177 -133 -86 -38 -23 -22 -20 -18 -28 -8 0 0 0 0 0 0 -2 -3 -2 0 0 0 0 0 0 -2 -3 -8 -26 -111 0 0 0 -18 -9 -2 -206 -11 -222 -5 0
-256 -207 -154 -133 -94 -26 -1 -1 0 -2 -2 -1 -2 -4 -9 -6 -9 -14 -8 -6 -9 -1 0 0 0 0 0 -7 -10 -32 -112 -208 0 0 0 0 0 0 0 -3 -1 -3 -3
-164 -197 -190 -88 -73 -32 -1 -1 -2 -2 -1 -1 -4 -2 -2 -24 -70 -4 -12 -6 -4 -4 -5 0 0 0 -3 -12 -33 -75 -196 0 0 0 0 0 -7 0 0 -1 -4 -2 -2
-160 -155 -126 -130 -53 -23 -2 -1 -2 -1 -1 -1 -4 -5 -15 -22 -23 -6 -36 -32 -45 -2 -6 0 0 0 -1 -7 -37 -87 -170 -13 0 0 0 0 -13 0 0 0 -1 -1 0
-145 -134 -118 -99 -101 -35 -1 0 0 0 0 -7 -15 -8 -42 -11 -70 -77 -142 -120 -48 -3 -5 0 0 0 -1 -7 -78 -113 0 0 0 0 0 -16 -218 0 0 0 0 -1 0
-154 -141 -123 -102 -92 -86 -27 -2 0 0 0 -10 -20 -13 -3 -15 -17 -9 -39 -81 -6 -15 -10 0 -8 -4 -7 -45 -86 0 0 0 0 0 0 -139 0 0 0 0 0 -1 -1
-191 -181 -175 -168 -148 -122 -78 -31 -8 0 0 -6 -1 0 -2 -8 -28 -28 -39 -28 -22 -34 -31 -14 -25 -11 -3 0 0 0 0 0 0 0 0 -222 0 0 0 0 -1 0 0
-239 -201 -224 -203 -184 -165 -109 -73 -8 -1 0 0 0 0 0 0 -5 -23 -57 -19 -23 -33 -14 -5 -10 -2 0 0 0 0 0 0 0 0 -14 -8 -140 0 0 0 0 0 -1
-288 -256 -269 -197 -192 -174 -159 -91 -21 0 0 0 0 0 0 -7 -14 -15 -14 0 -15 -18 0 -1 0 -6 0 0 0 0 0 0 0 0 -11 -15 -3 0 0 0 0 -1 -1
-332 -365 -299 -204 -196 -185 -175 -159 -115 -11 -14 -11 -33 -3 0 0 -27 -1 -1 0 0 -3 0 0 0 -3 -3 -5 0 0 0 0 0 0 -10 -22 -10 -3 -1 0 0 0 0
-56 0 -342 -294 -203 -167 -212 -230 -144 -63 -45 -96 -94 0 0 -18 -5 0 0 0 0 0 0 0 -1 -1 -6 -37 0 0 0 0 0 0 0 -24 -22 -9 -1 0 0 0 -1
-203 -345 -192 -205 -222 -165 -206 0 -125 -147 -158 -142 -87 -138 0 -45 -40 -13 0 0 0 -1 0 0 -7 0 -25 -1 0 0 0 0 0 0 0 -9 -12 -16 -13 -4 -1 -2 0
-229 -358 -200 -153 -320 -211 -242 -158 0 -57 -59 -120 -87 -47 -8 -19 -3 -69 -15 -3 0 -5 0 0 0 -1 0 0 0 0 0 0 0 0 0 0 -4 -5 -19 -12 -3 0 -1
-226 -321 -222 -167 -114 -262 -207 0 -148 -144 -125 -30 -14 -54 -68 -32 0 -11 -15 -40 -19 0 0 0 0 -5 0 0 -4 0 0 0 0 0 0 0 0 -4 -4 -16 -11 -6 -1
-279 -314 -251 -169 -272 -291 -252 0 -181 -154 -13 -89 -85 -21 -40 -36 -12 -14 -8 -13 -5 0 -9 0 -6 0 0 0 0 0 -5 -1 0 0 0 0 0 0 0 0 -9 -3 -8
-331 -355 -293 -193 -151 -71 0 0 0 -1 0 -74 -91 -40 -60 -1 -3 0 -4 -13 -2 0 -6 0 0 0 0 0 0 -3 -4 -2 -2 0 0 0 0 0 0 0 0 0 0
-466 -459 -325 -208 -154 -100 0 0 -86 0 0 -1 -1 -1 -2 -30 -4 0 -2 -1 -1 -1 0 -2 -12 0 0 0 -13 -36 -35 -1 -1 0 0 0 0 0 0 0 0 0 0
-681 -588 -355 -221 -190 -125 -53 0 0 0 0 0 0 0 0 -2 -34 -3 0 -4 -2 0 0 -3 0 -14 -1 0 -1 -8 -3 -1 -44 0 0 0 0 0 0 0 0 0 0
-705 -535 -350 -217 -210 -165 -104 0 0 0 0 0 0 0 0 0 0 -6 -15 -3 -2 0 -1 0 0 -1 0 0 0 0 -4 -26 -60 -55 -54 -11 0 0 0 0 0 0 -45
-594 -490 -298 -237 -218 -161 -143 0 0 0 0 0 0 0 0 0 0 0 -2 0 0 0 0 0 0 0 0 0 0 -4 -1 -15 -24 -33 -34 -68 -46 -58 -55 -46 -42 -43 -53
-555 -409 -302 -273 -232 -194 -134 -72 0 0 0 0 0 0 0 0 0 0 0 0 -3 -7 0 0 -1 -2 0 0 0 -5 -10 -2 -8 0 -23 -47 -44 -30 -35 -32 -40 -52 -49
Wind_Speed
25 31 36 38 41 40 35 32 34 36 39 42 43 45 45 42 39 38 39 38 39 39 39 37 33 32 31 34 33 33 33 33 33 34 35 39 39 38 39 35 30 26 30
30 34 38 40 41 42 39 35 35 36 38 41 43 43 42 40 39 36 33 34 37 39 39 35 32 31 32 33 32 35 33 32 33 33 38 39 39 38 37 32 28 27 30
30 33 35 39 39 39 40 40 38 37 37 38 40 41 40 37 36 34 34 31 32 35 38 39 33 30 29 30 32 33 32 32 32 33 35 nan 28 34 34 28 28 30 31
30 32 33 38 38 38 39 40 39 37 39 38 37 37 39 38 36 35 34 33 32 35 37 39 36 33 28 30 32 33 34 33 31 nan nan nan nan 31 30 30 31 30 30
28 33 32 33 33 37 41 44 42 37 35 38 39 40 40 39 40 40 38 36 35 36 36 38 39 35 29 29 33 33 33 34 nan nan nan nan nan 23 30 30 28 29 nan
26 29 31 31 31 32 38 42 42 38 35 36 36 41 39 36 43 41 38 38 38 36 35 39 37 37 29 29 33 35 34 nan nan nan nan nan nan nan nan nan nan nan nan
28 27 29 32 32 33 36 38 37 36 34 38 33 35 39 29 38 32 35 37 36 35 36 37 40 36 33 31 33 36 nan nan nan nan nan nan nan nan nan nan nan nan nan
31 28 27 31 33 36 37 35 32 32 32 31 29 32 38 41 49 20 41 31 33 37 38 31 35 35 34 33 nan nan nan nan nan nan nan nan nan nan nan nan nan nan nan
29 29 26 27 31 38 37 34 31 30 29 30 33 35 40 42 40 40 40 44 37 33 38 37 30 31 35 36 nan nan nan nan nan nan nan nan nan nan nan nan nan nan nan
29 28 29 27 28 33 32 30 31 32 36 35 33 38 43 38 38 35 nan 39 31 23 41 34 28 29 34 34 nan nan nan nan nan nan nan nan nan nan nan nan nan nan nan
26 31 28 25 27 31 31 29 31 32 33 34 33 35 35 28 nan nan nan 26 21 29 28 30 27 28 32 nan nan nan nan nan nan nan nan nan nan nan nan nan nan nan nan
29 29 31 25 26 30 31 32 31 29 27 30 28 30 28 28 26 23 nan 24 19 24 23 22 24 nan nan nan nan nan nan nan nan nan nan nan nan nan nan nan nan nan nan
25 30 31 27 26 30 32 30 26 25 26 28 31 30 28 26 25 22 25 26 26 19 24 26 nan nan nan nan nan nan nan nan nan nan nan nan nan nan nan nan nan nan nan
26 30 31 29 26 29 30 27 29 24 25 28 29 32 29 nan nan nan nan nan 28 32 nan nan nan nan nan nan nan nan nan nan nan nan nan nan nan nan nan nan nan nan nan
27 30 32 28 26 29 31 26 27 24 26 28 nan nan nan nan nan nan nan nan nan nan nan nan nan nan nan nan nan nan nan nan nan nan nan nan nan nan nan nan nan nan nan
nan nan 33 26 26 30 30 nan nan 25 26 nan nan nan nan nan nan nan nan nan nan nan nan nan nan nan nan nan nan nan nan nan nan nan nan nan nan nan nan nan nan nan nan
nan nan 35 25 26 28 28 nan nan nan nan nan nan nan nan nan nan nan nan nan nan nan nan nan nan nan nan nan nan nan nan nan nan nan nan nan nan nan nan nan nan nan nan
28 nan 33 26 nan 26 nan nan nan nan nan nan nan nan nan nan nan nan nan nan nan nan nan nan nan nan nan nan nan nan nan nan nan nan nan nan nan nan nan nan nan nan nan
29 34 32 28 nan 26 nan nan nan nan nan 24 28 nan nan nan nan nan nan nan nan nan nan nan nan nan nan nan nan nan nan nan nan nan nan nan nan nan nan nan nan nan nan
31 35 33 27 nan nan nan nan nan nan nan nan 26 25 nan nan nan nan nan nan nan nan nan nan nan nan nan nan nan nan nan nan nan nan nan nan nan nan nan nan nan nan nan
33 38 36 30 nan nan nan nan nan nan nan nan nan 22 nan nan nan nan nan nan nan nan nan nan nan nan nan nan nan nan nan nan nan nan nan nan nan nan nan nan nan nan nan
nan 37 36 29 nan nan nan nan nan nan nan nan nan nan nan 14 nan nan nan nan nan nan nan nan nan nan nan nan nan nan nan nan nan nan nan nan nan nan nan nan nan nan nan
nan nan 34 29 nan nan nan nan nan nan nan nan nan nan nan nan nan nan nan nan nan nan nan nan nan nan nan nan nan nan nan nan nan nan nan nan nan nan nan nan nan nan nan
25 35 35 29 24 nan nan nan nan nan nan nan nan nan nan nan nan nan nan nan nan nan nan nan nan nan nan nan nan nan nan nan nan nan nan nan nan nan nan nan nan nan nan
25 31 34 29 23 nan nan nan nan nan nan nan nan nan nan nan nan nan nan nan nan nan nan nan nan nan nan nan nan nan nan nan nan nan nan nan nan nan nan nan nan nan nan
35 29 32 26 22 nan nan nan nan nan nan nan nan nan nan nan nan nan nan nan nan nan nan nan nan nan nan nan nan nan nan nan nan nan nan nan nan nan nan nan nan nan nan
Wind_Direction
317 315 320 319 314 307 302 297 295 296 298 301 301 300 299 296 290 283 280 280 280 282 284 281 271 274 273 275 272 270 269 276 276 278 278 277 270 266 263 262 263 266 273
307 315 322 322 317 311 307 305 306 302 303 304 305 303 300 296 292 289 284 280 281 280 281 278 272 266 271 273 270 270 270 270 275 274 276 270 265 265 263 264 266 272 273
305 318 320 321 318 313 313 314 314 309 306 301 302 304 304 303 301 297 293 285 281 281 281 278 273 268 269 272 270 272 270 267 266 265 263 nan 256 266 269 268 275 277 280
311 322 321 323 320 319 316 318 317 315 313 305 300 300 300 300 298 298 296 293 289 283 281 277 272 267 268 270 268 269 269 268 265 nan nan nan nan 269 274 280 271 275 279
313 324 319 324 322 323 322 321 318 314 312 311 305 301 299 298 295 292 285 285 286 287 285 280 271 263 260 264 266 268 266 264 nan nan nan nan nan 274 276 272 274 280 nan
309 320 327 325 325 325 323 321 316 314 308 304 303 299 293 290 289 283 280 281 283 286 286 282 268 259 255 258 265 261 262 nan nan nan nan nan nan nan nan nan nan nan nan
310 315 317 326 326 327 324 318 310 305 302 305 300 305 301 264 281 282 288 283 282 278 286 280 269 255 251 252 255 259 nan nan nan nan nan nan nan nan nan nan nan nan nan
306 313 314 324 326 325 325 318 307 304 306 313 308 299 293 286 292 277 299 268 280 284 290 272 268 253 248 253 nan nan nan nan nan nan nan nan nan nan nan nan nan nan nan
298 305 310 313 323 329 325 320 307 303 300 302 297 300 298 301 296 293 286 295 275 288 283 281 262 253 243 251 nan nan nan nan nan nan nan nan nan nan nan nan nan nan nan
293 306 312 313 319 322 319 319 313 304 302 303 301 301 304 310 306 304 nan 305 275 281 290 284 254 252 245 245 nan nan nan nan nan nan nan nan nan nan nan nan nan nan nan
294 306 309 310 313 318 320 315 313 305 300 302 299 297 301 298 nan nan nan 301 298 297 290 270 257 254 246 nan nan nan nan nan nan nan nan nan nan nan nan nan nan nan nan
311 303 310 313 314 318 318 315 313 302 300 296 297 299 293 291 284 266 nan 262 288 284 280 264 255 nan nan nan nan nan nan nan nan nan nan nan nan nan nan nan nan nan nan
302 296 311 310 316 318 318 315 312 302 291 286 292 297 294 289 291 281 270 259 235 253 225 219 nan nan nan nan nan nan nan nan nan nan nan nan nan nan nan nan nan nan nan
294 298 307 309 318 318 314 315 313 303 295 284 290 297 296 nan nan nan nan nan 238 225 nan nan nan nan nan nan nan nan nan nan nan nan nan nan nan nan nan nan nan nan nan
294 295 299 310 319 318 316 313 310 303 298 291 nan nan nan nan nan nan nan nan nan nan nan nan nan nan nan nan nan nan nan nan nan nan nan nan nan nan nan nan nan nan nan
nan nan 295 314 317 320 316 nan nan 307 300 nan nan nan nan nan nan nan nan nan nan nan nan nan nan nan nan nan nan nan nan nan nan nan nan nan nan nan nan nan nan nan nan
nan nan 299 307 302 314 312 nan nan nan nan nan nan nan nan nan nan nan nan nan nan nan nan nan nan nan nan nan nan nan nan nan nan nan nan nan nan nan nan nan nan nan nan
284 nan 301 300 nan 307 nan nan nan nan nan nan nan nan nan nan nan nan nan nan nan nan nan nan nan nan nan nan nan nan nan nan nan nan nan nan nan nan nan nan nan nan nan
291 293 300 295 nan 306 nan nan nan nan nan 305 301 nan nan nan nan nan nan nan nan nan nan nan nan nan nan nan nan nan nan nan nan nan nan nan nan nan nan nan nan nan nan
287 288 293 291 nan nan nan nan nan nan nan nan 303 302 nan nan nan nan nan nan nan nan nan nan nan nan nan nan nan nan nan nan nan nan nan nan nan nan nan nan nan nan nan
279 287 293 294 nan nan nan nan nan nan nan nan nan 299 nan nan nan nan nan nan nan nan nan nan nan nan nan nan nan nan nan nan nan nan nan nan nan nan nan nan nan nan nan
nan 282 288 295 nan nan nan nan nan nan nan nan nan nan nan 274 nan nan nan nan nan nan nan nan nan nan nan nan nan nan nan nan nan nan nan nan nan nan nan nan nan nan nan
nan nan 289 294 nan nan nan nan nan nan nan nan nan nan nan nan nan nan nan nan nan nan nan nan nan nan nan nan nan nan nan nan nan nan nan nan nan nan nan nan nan nan nan
270 271 276 285 288 nan nan nan nan nan nan nan nan nan nan nan nan nan nan nan nan nan nan nan nan nan nan nan nan nan nan nan nan nan nan nan nan nan nan nan nan nan nan
247 264 268 276 286 nan nan nan nan nan nan nan nan nan nan nan nan nan nan nan nan nan nan nan nan nan nan nan nan nan nan nan nan nan nan nan nan nan nan nan nan nan nan
244 249 263 277 282 nan nan nan nan nan nan nan nan nan nan nan nan nan nan nan nan nan nan nan nan nan nan nan nan nan nan nan nan nan nan nan nan nan nan nan nan nan nan